Other Public Products
Issued by NWS Grand Forks, ND

Home | Current Version | Previous Version | Graphics & Text | Print | Product List | Glossary On
Versions: 1 2 3 4 5 6 7 8 9 10 11 12 13 14 15 16 17 18 19 20 21 22 23 24 25 26 27 28 29 30 31 32 33 34 35 36 37 38 39 40 41 42 43 44 45 46 47 48 49 50
000
FPUS83 KFGF 241731
OPUFGF
PRAIRIE TO PINES WEATHER ROUNDUP
NATIONAL WEATHER SERVICE EASTERN NORTH DAKOTA/GRAND FORKS ND
1100 AM CST FRI NOV 24 2017

 **SATELLITE DATA USED TO AUGMENT SKY COVER AT AUTOMATED STATIONS**
 *****  WEATHER ACROSS EASTERN NORTH DAKOTA  *****

CITY           SKY/WX    TMP DP  RH WIND       PRES   REMARKS
GRAND FORKS    FAIR      40  36  86 NW15      29.40R
GRND FORKS AFB FAIR      41  35  80 NW14      29.40R
GRND FORKS NWS   N/A     39 N/A N/A NW5         N/A
BUXTON           N/A     42  40  93 NW12        N/A
DEVILS LAKE    FAIR      40  36  86 W18       29.48R
FARGO          LGT RAIN  43  41  93 N15       29.42R
WAHPETON ARPT  NOT AVBL
$$

 *****  WEATHER ACROSS CENTRAL AND WESTERN NORTH DAKOTA  *****

CITY           SKY/WX    TMP DP  RH WIND       PRES   REMARKS
JAMESTOWN      CLOUDY    45  41  86 NW21G29   29.50R
BISMARCK       PTSUNNY   49  38  65 NW21G28   29.63R
MINOT          FAIR      48  37  65 W28G37    29.56R
MINOT AFB      FAIR      46  37  73 NW30G40   29.54R
GARRISON         N/A     44  38  79 NW18G24   29.61R
WILLISTON      FAIR      45  37  73 W22G28    29.66R
DICKINSON      PTSUNNY   45  38  76 W23       29.67
HETTINGER      CLOUDY    45  37  73 NW21G29   29.73R
$$

 *****  OTHER OBSERVATIONS NORTHEAST NORTH DAKOTA  *****

CITY           SKY/WX    TMP DP  RH WIND       PRES   REMARKS
WALHALLA       FAIR      43  37  81 NW17G28   29.41R
LANGDON        FAIR      41  37  87 NW23G30   29.45R
CAVALIER       FAIR      43  34  70 NW15G23   29.40R
GRAFTON        FAIR      41  36  81 W20G30    29.42R
CANDO          FAIR      43  39  87 W20       29.51R
FORT TOTTEN      N/A     41  36  82 NW8       29.95S
ROLLA          FAIR      43  32  65 NW20G29   29.49R
RUGBY          FAIR      43  37  81 NW22G28   29.53R
 ***** THE ABOVE OBSERVATIONS ARE NON NWS ARE NOT QUALITY
        CONTROLLED AND MAY MIS-REPORT RAIN FOR SNOW...
$$

 *****  OTHER OBSERVATIONS SOUTHEAST NORTH DAKOTA *****

CITY           SKY/WX    TMP DP  RH WIND       PRES   REMARKS
COOPERSTOWN    FAIR      41  39  93 W17G24    29.48R
VALLEY CITY    MIX PCPN  43  43 100 NW18      29.50R
OAKES            N/A     45  45 100 NW16      29.51R
GWINNER          N/A     45  43  93 NW14G22   29.49R
SHEYENNE NWR     N/A     46  43  89 N14       29.95S
BUFFALO          N/A     43  40  91 W10         N/A
WYNDMERE       NOT AVBL
 ***** THE ABOVE OBSERVATIONS ARE NON NWS ARE NOT QUALITY
       CONTROLLED AND MAY MIS-REPORT RAIN FOR SNOW...
$$

  *****  WEATHER ACROSS NORTHERN MINNESOTA  *****

CITY           SKY/WX    TMP DP  RH WIND       PRES   REMARKS
FLAG ISLAND    FAIR      36  30  80 NW15      29.31R
WARROAD        FAIR      39  36  87 W9        29.34R
ROSEAU         FAIR      39  36  87 W9        29.34R
HALLOCK        FAIR      39  36  87 NW16      29.38R
THF RVR FALLS  PTSUNNY   38  35  89 W8        29.38R
HALSTAD          N/A     42  39  89 NW9         N/A
FOSSTON        FAIR      37  36  93 W7        29.40R
BAUDETTE       CLOUDY    38  33  82 W10       29.31R
WASKISH        PTSUNNY   36  36 100 W5        29.33S
CROOKSTON      FAIR      39  37  93 NW13      29.41R
$$
  *****  WEATHER ACROSS CENTRAL AND WEST MINNESOTA  *****

CITY           SKY/WX    TMP DP  RH WIND       PRES   REMARKS
BEMIDJI        DRIZZLE   40  38  93 NW14G21   29.36R
PARK RAPIDS    CLOUDY    44  41  89 NW22G30   29.35R
WADENA         FAIR      46  45  93 W18G24    29.37R
DETROIT LAKES  DRIZZLE   41  39  93 NW16G25   29.42R
MOORHEAD       LGT RAIN  43  39  87 CALM      29.44R
FERGUS FALLS   CLOUDY    43  43 100 NW15      29.44R
ELBOW LAKE     PTSUNNY   44  42  95 W12       29.41R
MORRIS MN      FAIR      46  45  93 W3        29.41F
STAPLES        DRIZZLE   46  43  87 W12       29.33S
WHEATON        PTSUNNY   52  45  76 W12G18    29.44R
$$
  *****  WEATHER ELSEWHERE ACROSS MINNESOTA  *****

CITY           SKY/WX    TMP DP  RH WIND       PRES   REMARKS
DULUTH         LGT RAIN  41  38  89 W9        29.26S
INTRNTL FALLS  CLOUDY    39  33  79 W9        29.28R
ELY            RAIN      39  39 100 CALM      29.22F
CLOQUET        PTSUNNY   41  37  87 W5        29.28F
BRAINERD       PTSUNNY   46  39  76 W8        29.33R
HIBBING        LGT RAIN  37  37 100 CALM      29.26R
ALEXANDRIA     LGT RAIN  48  44  86 W12       29.40R
SAINT CLOUD    PTSUNNY   52  40  63 NW12      29.35R
MINNEAPOLIS    FAIR      54  40  59 W13       29.35R
$$

  *****  WEATHER ACROSS SOUTH DAKOTA  *****

CITY           SKY/WX    TMP DP  RH WIND       PRES   REMARKS
SIOUX FALLS    LGT RAIN  57  41  55 NW16      29.52R
BROOKINGS      PTSUNNY   58  42  55 NW18G31   29.53R
WATERTOWN      CLOUDY    51  45  79 W14       29.48S
HURON          LGT RAIN  55  42  61 W12       29.53S
SISSETON         N/A     55  44  66 W22G33    29.41R
ABERDEEN       PTSUNNY   55  43  63 NW28G39   29.51R
MITCHELL       FAIR      60  40  47 NW23G30   29.57R
PIERRE         FAIR      55  41  59 NW25G33   29.64R
MOBRIDGE       FAIR      50  39  66 NW17G28   29.61R
RAPID CITY     FAIR      52  30  43 NW36G44   29.79R
$$

  *****  SOME WEATHER IN NEARBY STATES *****

CITY           SKY/WX    TMP DP  RH WIND       PRES   REMARKS
GLASGOW MT     FAIR      41  35  79 W7        29.77R
GREAT FALLS MT FAIR      43  22  43 SW20      29.85F
CHEYENNE WY    FAIR      56  28  34 W20G31    29.89R
SCOTTSBLUFF NE FAIR      56  35  45 N22       29.85R
OMAHA NE       FAIR      64  40  41 SW6       29.49F
DES MOINES IA  FAIR      63  38  39 SW22      29.47F
DAVENPORT IA   FAIR      60  36  40 S22G29    29.57F
CHICAGO IL     FAIR      53  33  46 S18G26    29.64F
EAU CLAIRE WI  FAIR      54  37  52 W9        29.35
LA CROSSE WI   FAIR      56  37  49 SE9       29.38F
$$

  *****  SOME NATIONAL WEATHER *****

CITY           SKY/WX    TMP DP  RH WIND       PRES   REMARKS
LA GUARDIA NY  FAIR      48  21  34 S7        30.02F
RALEIGH NC     FAIR      51  22  31 E6        30.03F
ATLANTA GA     FAIR      57  42  57 CALM      30.02F
NEW ORLEANS LA FAIR      61  32  33 VRB3      30.04F
OKLAHOMA CITY  FAIR      68  37  32 S14       29.81F
ALBUQUERQUE NM FAIR      49  29  46 CALM      30.14S
SALT LAKE CITY FAIR      53  44  71 SE3       30.04S
LOS ANGELES CA FAIR      74  45  35 E7        29.93S
BOISE ID       FAIR      47  41  80 W9        30.10R
SEATTLE WA     PTSUNNY   48  39  71 S14       30.08R
$$

*** WEATHER ACROSS MANITOBA...SASKATCHEWAN AND ONTARIO ***
                ***ONTARIO***

CITY           SKY/WX    TMP DP  RH WIND       PRES   REMARKS
GERALDTON      DRIZZLE   36  34  93 W7        29.09S
THUNDER BAY    LGT RAIN  43  37  81 W6        29.16S
SIOUX LOOKOUT  CLOUDY    32  32 100 NW15G22   29.19R WCI  22
TORONTO        MOSUNNY   48  34  57 SW17G23   29.76F
BIG TROUT LK   LGT SNOW  12   9  85 VRB2      29.12F
PICKLE LAKE    LGT SNOW  23  23 100 W12       29.12R FOG     WCI  12
DRYDEN         CLOUDY    34  32  93 W16G22    29.22R WCI  23
KENORA         CLOUDY    32  30  93 NW9       29.28R WCI  24
$$
                *** MANITOBA***

CITY           SKY/WX    TMP DP  RH WIND       PRES   REMARKS
BRANDON        MOSUNNY   37  32  81 W16G23    29.46R
DAUPHIN        PTSUNNY   36  30  80 W20G26    29.39R
ISLAND LAKE    FLURRIES  12   7  79 NW14      29.22R WCI  -3
PILOT MOUND      N/A     39  32  75 NW16G23     N/A
THE PAS        FLURRIES  12   5  73 NW17G25   29.46R WCI  -5
THOMPSON       FLURRIES   3  -4  72 N8        29.40R WCI -10
WINNIPEG       PTSUNNY   37  32  81 W14       29.37R
LYNN LAKE      SUNNY      0  -4  85 NW7       29.48R WCI -13
CHURCHILL      LGT SNOW   5   1  85 NW9       29.42S WCI  -9
GILLAM         LGT SNOW   1  -4  78 N15       29.36  WCI -18
$$
                ***SASKATCHEWAN***

CITY           SKY/WX    TMP DP  RH WIND       PRES   REMARKS
ESTEVAN        MOSUNNY   43  36  75 W21G28    29.59R
KINDERSLEY     PTSUNNY   36  28  75 W9        29.65R
LLOYDMINSTER   PTSUNNY   36  28  75 W14       29.57R
PRINCE ALBERT  PTSUNNY   21  14  73 N10       29.60R WCI  10
REGINA         MOSUNNY   37  30  75 W20G26    29.59R
YORKTON        MOSUNNY   36  30  80 W22G31    29.46R



USA.gov is the U.S. government's official web portal to all federal, state and local government web resources and services.